TimeMST,TemperatureF,Dew PointF,Humidity,Sea Level PressureIn,VisibilityMPH,Wind Direction,Wind SpeedMPH,Gust SpeedMPH,PrecipitationIn,Events,Conditions,WindDirDegrees,DateUTC
12:53 AM,9.0,3.9,80,29.80,6.0,West,8.1,-,N/A,,Haze,270,2013-12-08 07:53:00
1:03 AM,8.6,3.2,79,29.56,8.0,West,10.4,-,N/A,,Overcast,280,2013-12-08 08:03:00
1:18 AM,5.0,1.4,85,29.56,10.0,WNW,6.9,-,N/A,,Scattered Clouds,290,2013-12-08 08:18:00
1:53 AM,3.0,-0.9,84,29.83,8.0,Calm,Calm,-,N/A,,Overcast,0,2013-12-08 08:53:00
2:53 AM,3.9,-2.0,76,29.84,10.0,WNW,11.5,-,N/A,,Mostly Cloudy,300,2013-12-08 09:53:00
3:06 AM,3.2,-2.2,78,29.61,10.0,WNW,9.2,-,N/A,,Mostly Cloudy,290,2013-12-08 10:06:00
3:42 AM,3.2,-2.2,78,29.61,10.0,West,10.4,-,N/A,,Overcast,260,2013-12-08 10:42:00
3:53 AM,5.0,-0.9,76,29.86,10.0,WSW,6.9,-,N/A,,Overcast,250,2013-12-08 10:53:00
4:46 AM,3.2,-2.2,78,29.62,2.5,West,16.1,-,N/A,,Haze,260,2013-12-08 11:46:00
4:53 AM,3.0,-2.9,76,29.88,2.0,WSW,16.1,-,0.00,Snow,Light Snow,250,2013-12-08 11:53:00
5:02 AM,1.4,-2.2,85,29.62,1.8,WSW,13.8,-,0.00,Snow,Light Snow,250,2013-12-08 12:02:00
5:09 AM,1.4,-4.0,78,29.62,2.5,WSW,13.8,-,0.00,,Haze,250,2013-12-08 12:09:00
5:17 AM,1.4,-4.0,78,29.62,3.0,West,12.7,-,0.00,,Haze,280,2013-12-08 12:17:00
5:43 AM,1.4,-4.0,78,29.62,10.0,NNW,8.1,20.7,0.00,,Scattered Clouds,330,2013-12-08 12:43:00
5:53 AM,-0.0,-6.0,76,29.89,9.0,SW,12.7,-,0.00,,Scattered Clouds,230,2013-12-08 12:53:00
6:06 AM,1.4,-5.8,72,29.64,6.0,Variable,5.8,20.7,N/A,,Haze,0,2013-12-08 13:06:00
6:40 AM,-0.4,-5.8,78,29.66,2.5,WSW,15.0,-,N/A,,Haze,250,2013-12-08 13:40:00
6:53 AM,-0.9,-6.0,79,29.95,2.5,WSW,15.0,-,N/A,,Haze,250,2013-12-08 13:53:00
7:20 AM,-0.4,-5.8,78,29.69,3.0,WSW,15.0,-,N/A,,Haze,240,2013-12-08 14:20:00
7:31 AM,-0.4,-5.8,78,29.69,2.0,WSW,16.1,-,N/A,,Haze,250,2013-12-08 14:31:00
7:39 AM,-0.4,-5.8,78,29.69,3.0,WSW,13.8,23.0,N/A,,Haze,250,2013-12-08 14:39:00
7:53 AM,-0.9,-6.0,79,29.98,7.0,WSW,18.4,26.5,N/A,,Overcast,250,2013-12-08 14:53:00
8:29 AM,-0.4,-5.8,78,29.70,5.0,WSW,15.0,19.6,N/A,,Haze,250,2013-12-08 15:29:00
8:37 AM,-0.4,-5.8,78,29.70,1.8,WSW,21.9,28.8,0.00,Snow,Light Snow,250,2013-12-08 15:37:00
8:53 AM,-0.0,-5.1,79,30.01,1.2,WSW,18.4,26.5,0.00,Snow,Light Snow,250,2013-12-08 15:53:00
9:10 AM,1.4,-5.8,72,29.72,2.5,WSW,25.3,29.9,0.00,,Mostly Cloudy,250,2013-12-08 16:10:00
9:18 AM,1.4,-4.0,78,29.72,3.0,WSW,21.9,29.9,0.00,,Mostly Cloudy,250,2013-12-08 16:18:00
9:30 AM,1.4,-4.0,78,29.73,2.0,WSW,23.0,32.2,0.00,,Mostly Cloudy,250,2013-12-08 16:30:00
9:36 AM,1.4,-2.2,85,29.73,1.5,West,24.2,33.4,0.00,,Overcast,260,2013-12-08 16:36:00
9:46 AM,3.2,-2.2,78,29.74,2.0,WSW,21.9,-,0.00,,Overcast,250,2013-12-08 16:46:00
9:53 AM,3.0,-2.0,80,30.02,1.5,WSW,23.0,-,0.00,Snow,Light Snow,250,2013-12-08 16:53:00
10:04 AM,3.2,-2.2,78,29.76,1.5,WSW,21.9,31.1,0.00,,Overcast,250,2013-12-08 17:04:00
10:07 AM,3.2,-2.2,78,29.76,2.0,WSW,23.0,31.1,0.00,,Overcast,250,2013-12-08 17:07:00
10:16 AM,3.2,-2.2,78,29.76,9.0,West,20.7,-,0.00,,Overcast,260,2013-12-08 17:16:00
10:23 AM,3.2,-2.2,78,29.77,10.0,West,16.1,25.3,0.00,,Overcast,260,2013-12-08 17:23:00
10:30 AM,3.2,-2.2,78,29.76,9.0,WSW,17.3,23.0,0.00,,Mostly Cloudy,240,2013-12-08 17:30:00
10:39 AM,3.2,-2.2,78,29.75,10.0,West,16.1,19.6,0.00,,Mostly Cloudy,260,2013-12-08 17:39:00
10:53 AM,5.0,-2.0,73,30.00,9.0,WSW,19.6,27.6,0.00,,Partly Cloudy,250,2013-12-08 17:53:00
11:21 AM,6.8,-2.2,67,29.74,2.5,WSW,26.5,38.0,N/A,Snow,Blowing Snow,250,2013-12-08 18:21:00
11:39 AM,6.8,-2.2,67,29.75,4.0,WSW,25.3,35.7,N/A,,Haze,250,2013-12-08 18:39:00
11:53 AM,6.1,-2.0,69,29.98,4.0,WSW,21.9,34.5,N/A,,Haze,250,2013-12-08 18:53:00
12:37 PM,6.8,-0.4,72,29.74,2.5,WSW,29.9,36.8,N/A,,Haze,250,2013-12-08 19:37:00
12:53 PM,7.0,-0.9,70,29.98,2.0,WSW,31.1,38.0,N/A,Snow,Blowing Snow,240,2013-12-08 19:53:00
1:03 PM,6.8,-0.4,72,29.75,1.8,WSW,28.8,38.0,N/A,Snow,Blowing Snow,250,2013-12-08 20:03:00
1:08 PM,6.8,-0.4,72,29.76,2.0,WSW,24.2,38.0,N/A,Snow,Blowing Snow,240,2013-12-08 20:08:00
1:12 PM,6.8,-0.4,72,29.75,3.0,WSW,28.8,34.5,N/A,,Haze,250,2013-12-08 20:12:00
1:31 PM,6.8,-0.4,72,29.75,5.0,WSW,25.3,33.4,N/A,,Haze,240,2013-12-08 20:31:00
1:43 PM,6.8,-0.4,72,29.75,7.0,WSW,20.7,31.1,N/A,,Mostly Cloudy,240,2013-12-08 20:43:00
1:53 PM,7.0,-0.0,73,30.03,9.0,WSW,20.7,28.8,N/A,,Scattered Clouds,250,2013-12-08 20:53:00
2:29 PM,6.8,-0.4,72,29.76,8.0,WSW,21.9,-,N/A,,Mostly Cloudy,250,2013-12-08 21:29:00
2:49 PM,6.8,-0.4,72,29.77,9.0,WSW,20.7,28.8,N/A,,Scattered Clouds,250,2013-12-08 21:49:00
2:53 PM,7.0,-0.9,70,30.03,10.0,WSW,17.3,27.6,N/A,,Partly Cloudy,250,2013-12-08 21:53:00
3:14 PM,6.8,-0.4,72,29.77,7.0,WSW,21.9,32.2,N/A,,Mostly Cloudy,250,2013-12-08 22:14:00
3:53 PM,6.1,-2.0,69,30.06,10.0,WSW,17.3,-,N/A,,Mostly Cloudy,250,2013-12-08 22:53:00
4:06 PM,6.8,-2.2,67,29.79,10.0,WSW,13.8,-,N/A,,Scattered Clouds,240,2013-12-08 23:06:00
4:53 PM,5.0,-2.9,70,30.09,10.0,WSW,15.0,-,N/A,,Partly Cloudy,240,2013-12-08 23:53:00
5:34 PM,6.8,-2.2,67,29.81,10.0,WSW,17.3,-,N/A,,Mostly Cloudy,250,2013-12-09 00:34:00
5:53 PM,6.1,-0.9,73,30.12,10.0,West,17.3,-,N/A,,Overcast,260,2013-12-09 00:53:00
6:53 PM,5.0,-0.9,76,30.15,5.0,WSW,17.3,-,N/A,,Haze,250,2013-12-09 01:53:00
7:53 PM,3.0,-2.9,76,30.17,9.0,WSW,8.1,-,N/A,,Overcast,240,2013-12-09 02:53:00
8:45 PM,3.2,-2.2,78,29.86,10.0,WSW,9.2,-,N/A,,Overcast,250,2013-12-09 03:45:00
8:53 PM,3.0,-2.9,76,30.17,10.0,West,10.4,-,N/A,,Overcast,260,2013-12-09 03:53:00
9:53 PM,1.9,-6.0,69,30.17,10.0,WSW,16.1,-,N/A,,Clear,240,2013-12-09 04:53:00
10:24 PM,1.4,-4.0,78,29.88,1.8,WSW,15.0,-,0.00,Snow,Light Snow,250,2013-12-09 05:24:00
10:29 PM,1.4,-4.0,78,29.88,2.0,West,15.0,-,0.00,Snow,Light Snow,260,2013-12-09 05:29:00
10:50 PM,1.4,-2.2,85,29.88,1.5,WSW,15.0,-,0.00,Snow,Light Snow,250,2013-12-09 05:50:00
10:53 PM,1.9,-2.9,80,30.18,1.5,WSW,13.8,-,0.00,Snow,Light Snow,250,2013-12-09 05:53:00
11:03 PM,1.4,-2.2,85,29.88,2.5,WSW,12.7,-,0.00,Snow,Light Snow,250,2013-12-09 06:03:00
11:12 PM,1.4,-4.0,78,29.89,4.0,WSW,11.5,-,0.00,,Haze,250,2013-12-09 06:12:00
11:23 PM,1.4,-2.2,85,29.89,2.5,WSW,10.4,-,0.00,,Haze,240,2013-12-09 06:23:00
11:35 PM,1.4,-2.2,85,29.89,1.5,WSW,10.4,-,0.00,Snow,Light Snow,250,2013-12-09 06:35:00
11:53 PM,1.9,-2.9,80,30.18,1.8,WSW,12.7,-,0.00,Snow,Light Snow,250,2013-12-09 06:53:00